Year,Month,Day,Hour,Minute,Value (Times are PST for temperature in C)
2018,05,18,00,00,12.20
2018,05,18,00,01,12.10
2018,05,18,00,02,12.10
2018,05,18,00,03,12.10
2018,05,18,00,04,12.10
2018,05,18,00,05,12.10
2018,05,18,00,06,12.10
2018,05,18,00,07,12.10
2018,05,18,00,08,12.00
2018,05,18,00,09,12.00
2018,05,18,00,10,12.00
2018,05,18,00,11,12.00
2018,05,18,00,12,11.90
2018,05,18,00,13,11.90
2018,05,18,00,14,11.90
2018,05,18,00,15,11.90
2018,05,18,00,16,11.90
2018,05,18,00,17,11.90
2018,05,18,00,18,11.90
2018,05,18,00,19,11.90
2018,05,18,00,20,11.90
2018,05,18,00,21,11.90
2018,05,18,00,22,11.90
2018,05,18,00,23,11.90
2018,05,18,00,24,11.80
2018,05,18,00,25,11.80
2018,05,18,00,26,11.80
2018,05,18,00,27,11.80
2018,05,18,00,28,11.80
2018,05,18,00,29,11.80
2018,05,18,00,30,11.80
2018,05,18,00,31,11.70
2018,05,18,00,32,11.70
2018,05,18,00,33,11.70
2018,05,18,00,34,11.70
2018,05,18,00,35,11.70
2018,05,18,00,36,11.70
2018,05,18,00,37,11.70
2018,05,18,00,38,11.70
2018,05,18,00,39,11.60
2018,05,18,00,40,11.60
2018,05,18,00,41,11.60
2018,05,18,00,42,11.60
2018,05,18,00,43,11.60
2018,05,18,00,44,11.60
2018,05,18,00,45,11.60
2018,05,18,00,46,11.60
2018,05,18,00,47,11.60
2018,05,18,00,48,11.50
2018,05,18,00,49,11.50
2018,05,18,00,50,11.50
2018,05,18,00,51,11.50
2018,05,18,00,52,11.50
2018,05,18,00,53,11.50
2018,05,18,00,54,11.40
2018,05,18,00,55,11.40
2018,05,18,00,56,11.40
2018,05,18,00,57,11.40
2018,05,18,00,58,11.30
2018,05,18,00,59,11.30
2018,05,18,01,00,11.30
2018,05,18,01,01,11.20
2018,05,18,01,02,11.20
2018,05,18,01,03,11.20
2018,05,18,01,04,11.20
2018,05,18,01,05,11.20
2018,05,18,01,06,11.20
2018,05,18,01,07,11.20
2018,05,18,01,08,11.20
2018,05,18,01,09,11.20
2018,05,18,01,10,11.10
2018,05,18,01,11,11.10
2018,05,18,01,12,11.10
2018,05,18,01,13,11.00
2018,05,18,01,14,11.00
2018,05,18,01,15,11.00
2018,05,18,01,16,10.90
2018,05,18,01,17,10.90
2018,05,18,01,18,10.90
2018,05,18,01,19,10.80
2018,05,18,01,20,10.80
2018,05,18,01,21,10.80
2018,05,18,01,22,10.70
2018,05,18,01,23,10.70
2018,05,18,01,24,10.70
2018,05,18,01,25,10.60
2018,05,18,01,26,10.60
2018,05,18,01,27,10.60
2018,05,18,01,28,10.50
2018,05,18,01,29,10.50
2018,05,18,01,30,10.50
2018,05,18,01,31,10.40
2018,05,18,01,32,10.40
2018,05,18,01,33,10.40
2018,05,18,01,34,10.40
2018,05,18,01,35,10.40
2018,05,18,01,36,10.30
2018,05,18,01,37,10.30
2018,05,18,01,38,10.30
2018,05,18,01,39,10.30
2018,05,18,01,40,10.20
2018,05,18,01,41,10.20
2018,05,18,01,42,10.20
2018,05,18,01,43,10.20
2018,05,18,01,44,10.20
2018,05,18,01,45,10.20
2018,05,18,01,46,10.10
2018,05,18,01,47,10.10
2018,05,18,01,48,10.10
2018,05,18,01,49,10.10
2018,05,18,01,50,10.00
2018,05,18,01,51,10.00
2018,05,18,01,52,10.00
2018,05,18,01,53,9.90
2018,05,18,01,54,9.90
2018,05,18,01,55,9.90
2018,05,18,01,56,9.90
2018,05,18,01,57,9.90
2018,05,18,01,58,9.80
2018,05,18,01,59,9.80
2018,05,18,02,00,9.80
2018,05,18,02,01,9.80
2018,05,18,02,02,9.80
2018,05,18,02,03,9.70
2018,05,18,02,04,9.70
2018,05,18,02,05,9.70
2018,05,18,02,06,9.70
2018,05,18,02,07,9.70
2018,05,18,02,08,9.70
2018,05,18,02,09,9.60
2018,05,18,02,10,9.60
2018,05,18,02,11,9.60
2018,05,18,02,12,9.60
2018,05,18,02,13,9.60
2018,05,18,02,14,9.50
2018,05,18,02,15,9.50
2018,05,18,02,16,9.50
2018,05,18,02,17,9.50
2018,05,18,02,18,9.50
2018,05,18,02,19,9.50
2018,05,18,02,20,9.40
2018,05,18,02,21,9.40
2018,05,18,02,22,9.40
2018,05,18,02,23,9.40
2018,05,18,02,24,9.40
2018,05,18,02,25,9.30
2018,05,18,02,26,9.30
2018,05,18,02,27,9.30
2018,05,18,02,28,9.30
2018,05,18,02,29,9.30
2018,05,18,02,30,9.30
2018,05,18,02,31,9.20
2018,05,18,02,32,9.20
2018,05,18,02,33,9.20
2018,05,18,02,34,9.20
2018,05,18,02,35,9.20
2018,05,18,02,36,9.20
2018,05,18,02,37,9.20
2018,05,18,02,38,9.20
2018,05,18,02,39,9.20
2018,05,18,02,40,9.10
2018,05,18,02,41,9.10
2018,05,18,02,42,9.10
2018,05,18,02,43,9.10
2018,05,18,02,44,9.10
2018,05,18,02,45,9.00
2018,05,18,02,46,9.00
2018,05,18,02,47,9.00
2018,05,18,02,48,9.00
2018,05,18,02,49,9.00
2018,05,18,02,50,8.90
2018,05,18,02,51,8.90
2018,05,18,02,52,8.90
2018,05,18,02,53,8.90
2018,05,18,02,54,8.90
2018,05,18,02,55,8.90
2018,05,18,02,56,8.90
2018,05,18,02,57,8.90
2018,05,18,02,58,8.90
2018,05,18,02,59,8.90
2018,05,18,03,00,8.90
2018,05,18,03,01,8.90
2018,05,18,03,02,8.80
2018,05,18,03,03,8.80
2018,05,18,03,04,8.80
2018,05,18,03,05,8.80
2018,05,18,03,06,8.80
2018,05,18,03,07,8.80
2018,05,18,03,08,8.80
2018,05,18,03,09,8.80
2018,05,18,03,10,8.80
2018,05,18,03,11,8.80
2018,05,18,03,12,8.80
2018,05,18,03,13,8.80
2018,05,18,03,14,8.70
2018,05,18,03,15,8.70
2018,05,18,03,16,8.70
2018,05,18,03,17,8.70
2018,05,18,03,18,8.70
2018,05,18,03,19,8.70
2018,05,18,03,20,8.70
2018,05,18,03,21,8.70
2018,05,18,03,22,8.70
2018,05,18,03,23,8.70
2018,05,18,03,24,8.70
2018,05,18,03,25,8.70
2018,05,18,03,26,8.70
2018,05,18,03,27,8.70
2018,05,18,03,28,8.70
2018,05,18,03,29,8.70
2018,05,18,03,30,8.70
2018,05,18,03,31,8.70
2018,05,18,03,32,8.70
2018,05,18,03,33,8.70
2018,05,18,03,34,8.70
2018,05,18,03,35,8.70
2018,05,18,03,36,8.70
2018,05,18,03,37,8.80
2018,05,18,03,38,8.80
2018,05,18,03,39,8.80
2018,05,18,03,40,8.80
2018,05,18,03,41,8.80
2018,05,18,03,42,8.80
2018,05,18,03,43,8.80
2018,05,18,03,44,8.80
2018,05,18,03,45,8.80
2018,05,18,03,46,8.80
2018,05,18,03,47,8.80
2018,05,18,03,48,8.90
2018,05,18,03,49,8.90
2018,05,18,03,50,8.90
2018,05,18,03,51,8.90
2018,05,18,03,52,8.90
2018,05,18,03,53,8.90
2018,05,18,03,54,9.00
2018,05,18,03,55,9.00
2018,05,18,03,56,9.00
2018,05,18,03,57,9.00
2018,05,18,03,58,9.00
2018,05,18,03,59,9.10
2018,05,18,04,00,9.10
2018,05,18,04,01,9.10
2018,05,18,04,02,9.10
2018,05,18,04,03,9.10
2018,05,18,04,04,9.10
2018,05,18,04,05,9.10
2018,05,18,04,06,9.10
2018,05,18,04,07,9.20
2018,05,18,04,08,9.20
2018,05,18,04,09,9.20
2018,05,18,04,10,9.20
2018,05,18,04,11,9.20
2018,05,18,04,12,9.20
2018,05,18,04,13,9.20
2018,05,18,04,14,9.20
2018,05,18,04,15,9.20
2018,05,18,04,16,9.30
2018,05,18,04,17,9.30
2018,05,18,04,18,9.30
2018,05,18,04,19,9.30
2018,05,18,04,20,9.30
2018,05,18,04,21,9.30
2018,05,18,04,22,9.30
2018,05,18,04,23,9.30
2018,05,18,04,24,9.30
2018,05,18,04,25,9.30
2018,05,18,04,26,9.30
2018,05,18,04,27,9.30
2018,05,18,04,28,9.30
2018,05,18,04,29,9.30
2018,05,18,04,30,9.30
2018,05,18,04,31,9.30
2018,05,18,04,32,9.30
2018,05,18,04,33,9.40
2018,05,18,04,34,9.40
2018,05,18,04,35,9.40
2018,05,18,04,36,9.40
2018,05,18,04,37,9.40
2018,05,18,04,38,9.40
2018,05,18,04,39,9.40
2018,05,18,04,40,9.40
2018,05,18,04,41,9.40
2018,05,18,04,42,9.40
2018,05,18,04,43,9.50
2018,05,18,04,44,9.50
2018,05,18,04,45,9.50
2018,05,18,04,46,9.50
2018,05,18,04,47,9.50
2018,05,18,04,48,9.50
2018,05,18,04,49,9.50
2018,05,18,04,50,9.60
2018,05,18,04,51,9.60
2018,05,18,04,52,9.60
2018,05,18,04,53,9.60
2018,05,18,04,54,9.60
2018,05,18,04,55,9.60
2018,05,18,04,56,9.60
2018,05,18,04,57,9.70
2018,05,18,04,58,9.70
2018,05,18,04,59,9.70
2018,05,18,05,00,9.70
2018,05,18,05,01,9.70
2018,05,18,05,02,9.70
2018,05,18,05,03,9.70
2018,05,18,05,04,9.70
2018,05,18,05,05,9.70
2018,05,18,05,06,9.70
2018,05,18,05,07,9.70
2018,05,18,05,08,9.70
2018,05,18,05,09,9.70
2018,05,18,05,10,9.70
2018,05,18,05,11,9.70
2018,05,18,05,12,9.70
2018,05,18,05,13,9.70
2018,05,18,05,14,9.70
2018,05,18,05,15,9.70
2018,05,18,05,16,9.70
2018,05,18,05,17,9.70
2018,05,18,05,18,9.70
2018,05,18,05,19,9.70
2018,05,18,05,20,9.60
2018,05,18,05,21,9.70
2018,05,18,05,22,9.60
2018,05,18,05,23,9.60
2018,05,18,05,24,9.60
2018,05,18,05,25,9.60
2018,05,18,05,26,9.60
2018,05,18,05,27,9.60
2018,05,18,05,28,9.60
2018,05,18,05,29,9.60
2018,05,18,05,30,9.60
2018,05,18,05,31,9.60
2018,05,18,05,32,9.60
2018,05,18,05,33,9.60
2018,05,18,05,34,9.60
2018,05,18,05,35,9.60
2018,05,18,05,36,9.60
2018,05,18,05,37,9.60
2018,05,18,05,38,9.60
2018,05,18,05,39,9.60
2018,05,18,05,40,9.60
2018,05,18,05,41,9.60
2018,05,18,05,42,9.60
2018,05,18,05,43,9.60
2018,05,18,05,44,9.60
2018,05,18,05,45,9.60
2018,05,18,05,46,9.60
2018,05,18,05,47,9.60
2018,05,18,05,48,9.60
2018,05,18,05,49,9.60
2018,05,18,05,50,9.60
2018,05,18,05,51,9.60
2018,05,18,05,52,9.60
2018,05,18,05,53,9.60
2018,05,18,05,54,9.60
2018,05,18,05,55,9.60
2018,05,18,05,56,9.60
2018,05,18,05,57,9.60
2018,05,18,05,58,9.60
2018,05,18,05,59,9.60
2018,05,18,06,00,9.60
2018,05,18,06,01,9.60
2018,05,18,06,02,9.60
2018,05,18,06,03,9.60
2018,05,18,06,04,9.60
2018,05,18,06,05,9.60
2018,05,18,06,06,9.60
2018,05,18,06,07,9.60
2018,05,18,06,08,9.70
2018,05,18,06,09,9.70
2018,05,18,06,10,9.70
2018,05,18,06,11,9.70
2018,05,18,06,12,9.70
2018,05,18,06,13,9.70
2018,05,18,06,14,9.70
2018,05,18,06,15,9.70
2018,05,18,06,16,9.70
2018,05,18,06,17,9.70
2018,05,18,06,18,9.70
2018,05,18,06,19,9.70
2018,05,18,06,20,9.70
2018,05,18,06,21,9.70
2018,05,18,06,22,9.70
2018,05,18,06,23,9.70
2018,05,18,06,24,9.70
2018,05,18,06,25,9.80
2018,05,18,06,26,9.80
2018,05,18,06,27,9.80
2018,05,18,06,28,9.80
2018,05,18,06,29,9.80
2018,05,18,06,30,9.80
2018,05,18,06,31,9.80
2018,05,18,06,32,9.80
2018,05,18,06,33,9.80
2018,05,18,06,34,9.80
2018,05,18,06,35,9.80
2018,05,18,06,36,9.90
2018,05,18,06,37,9.90
2018,05,18,06,38,9.90
2018,05,18,06,39,9.90
2018,05,18,06,40,9.90
2018,05,18,06,41,9.90
2018,05,18,06,42,9.90
2018,05,18,06,43,9.90
2018,05,18,06,44,9.90
2018,05,18,06,45,9.90
2018,05,18,06,46,9.90
2018,05,18,06,47,9.90
2018,05,18,06,48,9.90
2018,05,18,06,49,9.90
2018,05,18,06,50,9.90
2018,05,18,06,51,9.90
2018,05,18,06,52,9.90
2018,05,18,06,53,10.00
2018,05,18,06,54,10.00
2018,05,18,06,55,10.00
2018,05,18,06,56,10.00
2018,05,18,06,57,10.00
2018,05,18,06,58,10.00
2018,05,18,06,59,10.00
2018,05,18,07,00,10.00
2018,05,18,07,01,10.00
2018,05,18,07,02,10.00
2018,05,18,07,03,10.00
2018,05,18,07,04,10.00
2018,05,18,07,05,10.00
2018,05,18,07,06,10.10
2018,05,18,07,07,10.10
2018,05,18,07,08,10.10
2018,05,18,07,09,10.10
2018,05,18,07,10,10.10
2018,05,18,07,11,10.10
2018,05,18,07,12,10.10
2018,05,18,07,13,10.00
2018,05,18,07,14,10.00
2018,05,18,07,15,10.00
2018,05,18,07,16,10.00
2018,05,18,07,17,10.00
2018,05,18,07,18,10.00
2018,05,18,07,19,10.00
2018,05,18,07,20,10.10
2018,05,18,07,21,10.10
2018,05,18,07,22,10.10
2018,05,18,07,23,10.10
2018,05,18,07,24,10.10
2018,05,18,07,25,10.10
2018,05,18,07,26,10.10
2018,05,18,07,27,10.10
2018,05,18,07,28,10.20
2018,05,18,07,29,10.20
2018,05,18,07,30,10.20
2018,05,18,07,31,10.20
2018,05,18,07,32,10.20
2018,05,18,07,33,10.20
2018,05,18,07,34,10.20
2018,05,18,07,35,10.20
2018,05,18,07,36,10.20
2018,05,18,07,37,10.20
2018,05,18,07,38,10.20
2018,05,18,07,39,10.20
2018,05,18,07,40,10.30
2018,05,18,07,41,10.30
2018,05,18,07,42,10.30
2018,05,18,07,43,10.30
2018,05,18,07,44,10.30
2018,05,18,07,45,10.40
2018,05,18,07,46,10.40
2018,05,18,07,47,10.40
2018,05,18,07,48,10.40
2018,05,18,07,49,10.40
2018,05,18,07,50,10.40
2018,05,18,07,51,10.40
2018,05,18,07,52,10.40
2018,05,18,07,53,10.40
2018,05,18,07,54,10.40
2018,05,18,07,55,10.40
2018,05,18,07,56,10.40
2018,05,18,07,57,10.40
2018,05,18,07,58,10.50
2018,05,18,07,59,10.50
2018,05,18,08,00,10.50
2018,05,18,08,01,10.50
2018,05,18,08,02,10.50
2018,05,18,08,03,10.60
2018,05,18,08,04,10.60
2018,05,18,08,05,10.60
2018,05,18,08,06,10.60
2018,05,18,08,07,10.60
2018,05,18,08,08,10.60
2018,05,18,08,09,10.60
2018,05,18,08,10,10.60
2018,05,18,08,11,10.60
2018,05,18,08,12,10.60
2018,05,18,08,13,10.60
2018,05,18,08,14,10.60
2018,05,18,08,15,10.60
2018,05,18,08,16,10.60
2018,05,18,08,17,10.70
2018,05,18,08,18,10.70
2018,05,18,08,19,10.70
2018,05,18,08,20,10.70
2018,05,18,08,21,10.80
2018,05,18,08,22,10.80
2018,05,18,08,23,10.80
2018,05,18,08,24,10.90
2018,05,18,08,25,11.00
2018,05,18,08,26,11.10
2018,05,18,08,27,11.10
2018,05,18,08,28,11.10
2018,05,18,08,29,11.10
2018,05,18,08,30,11.10
2018,05,18,08,31,11.10
2018,05,18,08,32,11.10
2018,05,18,08,33,11.10
2018,05,18,08,34,11.20
2018,05,18,08,35,11.20
2018,05,18,08,36,11.20
2018,05,18,08,37,11.20
2018,05,18,08,38,11.20
2018,05,18,08,39,11.30
2018,05,18,08,40,11.30
2018,05,18,08,41,11.30
2018,05,18,08,42,11.30
2018,05,18,08,43,11.30
2018,05,18,08,44,11.40
2018,05,18,08,45,11.40
2018,05,18,08,46,11.50
2018,05,18,08,47,11.50
2018,05,18,08,48,11.60
2018,05,18,08,49,11.60
2018,05,18,08,50,11.60
2018,05,18,08,51,11.60
2018,05,18,08,52,11.60
2018,05,18,08,53,11.60
2018,05,18,08,54,11.60
2018,05,18,08,55,11.60
2018,05,18,08,56,11.70
2018,05,18,08,57,11.70
2018,05,18,08,58,11.80
2018,05,18,08,59,11.90
2018,05,18,09,00,11.90
2018,05,18,09,01,12.00
2018,05,18,09,02,12.00
2018,05,18,09,03,12.10
2018,05,18,09,04,12.20
2018,05,18,09,05,12.20
2018,05,18,09,06,12.20
2018,05,18,09,07,12.30
2018,05,18,09,08,12.30
2018,05,18,09,09,12.30
2018,05,18,09,10,12.40
2018,05,18,09,11,12.40
2018,05,18,09,12,12.50
2018,05,18,09,13,12.60
2018,05,18,09,14,12.60
2018,05,18,09,15,12.60
2018,05,18,09,16,12.70
2018,05,18,09,17,12.70
2018,05,18,09,18,12.80
2018,05,18,09,19,12.80
2018,05,18,09,20,12.90
2018,05,18,09,21,12.90
2018,05,18,09,22,13.00
2018,05,18,09,23,13.00
2018,05,18,09,24,13.10
2018,05,18,09,25,13.10
2018,05,18,09,26,13.20
2018,05,18,09,27,13.20
2018,05,18,09,28,13.20
2018,05,18,09,29,13.30
2018,05,18,09,30,13.40
2018,05,18,09,31,13.50
2018,05,18,09,32,13.60
2018,05,18,09,33,13.70
2018,05,18,09,34,13.70
2018,05,18,09,35,13.70
2018,05,18,09,36,13.70
2018,05,18,09,37,13.80
2018,05,18,09,38,13.90
2018,05,18,09,39,13.90
2018,05,18,09,40,14.00
2018,05,18,09,41,14.00
2018,05,18,09,42,14.10
2018,05,18,09,43,14.10
2018,05,18,09,44,14.10
2018,05,18,09,45,14.10
2018,05,18,09,46,14.10
2018,05,18,09,47,14.20
2018,05,18,09,48,14.20
2018,05,18,09,49,14.20
2018,05,18,09,50,14.20
2018,05,18,09,51,14.20
2018,05,18,09,52,14.30
2018,05,18,09,53,14.30
2018,05,18,09,54,14.30
2018,05,18,09,55,14.40
2018,05,18,09,56,14.40
2018,05,18,09,57,14.40
2018,05,18,09,58,14.40
2018,05,18,09,59,14.50
2018,05,18,10,00,14.50
2018,05,18,10,01,14.60
2018,05,18,10,02,14.70
2018,05,18,10,03,14.70
2018,05,18,10,04,14.70
2018,05,18,10,05,14.80
2018,05,18,10,06,14.80
2018,05,18,10,07,14.80
2018,05,18,10,08,14.80
2018,05,18,10,09,14.80
2018,05,18,10,10,15.00
2018,05,18,10,11,15.10
2018,05,18,10,12,15.20
2018,05,18,10,13,15.30
2018,05,18,10,14,15.30
2018,05,18,10,15,15.30
2018,05,18,10,16,15.40
2018,05,18,10,17,15.40
2018,05,18,10,18,15.50
2018,05,18,10,19,15.60
2018,05,18,10,20,15.70
2018,05,18,10,21,15.70
2018,05,18,10,22,15.70
2018,05,18,10,23,15.70
2018,05,18,10,24,15.80
2018,05,18,10,25,15.80
2018,05,18,10,26,15.80
2018,05,18,10,27,15.80
2018,05,18,10,28,15.80
2018,05,18,10,29,15.80
2018,05,18,10,30,15.80
2018,05,18,10,31,15.80
2018,05,18,10,32,15.90
2018,05,18,10,33,16.00
2018,05,18,10,34,16.10
2018,05,18,10,35,16.20
2018,05,18,10,36,16.30
2018,05,18,10,37,16.30
2018,05,18,10,38,16.30
2018,05,18,10,39,16.40
2018,05,18,10,40,16.40
2018,05,18,10,41,16.50
2018,05,18,10,42,16.50
2018,05,18,10,43,16.50
2018,05,18,10,44,16.60
2018,05,18,10,45,16.60
2018,05,18,10,46,16.70
2018,05,18,10,47,16.70
2018,05,18,10,48,16.70
2018,05,18,10,49,16.70
2018,05,18,10,50,16.70
2018,05,18,10,51,16.70
2018,05,18,10,52,16.80
2018,05,18,10,53,16.80
2018,05,18,10,54,16.80
2018,05,18,10,55,16.90
2018,05,18,10,56,17.00
2018,05,18,10,57,17.10
2018,05,18,10,58,17.10
2018,05,18,10,59,17.10
2018,05,18,11,00,17.10
2018,05,18,11,01,17.10
2018,05,18,11,02,17.10
2018,05,18,11,03,17.10
2018,05,18,11,04,17.10
2018,05,18,11,05,17.20
2018,05,18,11,06,17.10
2018,05,18,11,07,17.10
2018,05,18,11,08,17.10
2018,05,18,11,09,17.10
2018,05,18,11,10,17.20
2018,05,18,11,11,17.20
2018,05,18,11,12,17.40
2018,05,18,11,13,17.50
2018,05,18,11,14,17.60
2018,05,18,11,15,17.60
2018,05,18,11,16,17.60
2018,05,18,11,17,17.70
2018,05,18,11,18,17.70
2018,05,18,11,19,17.70
2018,05,18,11,20,17.60
2018,05,18,11,21,17.60
2018,05,18,11,22,17.60
2018,05,18,11,23,17.70
2018,05,18,11,24,17.60
2018,05,18,11,25,17.60
2018,05,18,11,26,17.70
2018,05,18,11,27,17.70
2018,05,18,11,28,17.70
2018,05,18,11,29,17.70
2018,05,18,11,30,17.80
2018,05,18,11,31,17.90
2018,05,18,11,32,17.90
2018,05,18,11,33,17.90
2018,05,18,11,34,17.80
2018,05,18,11,35,17.90
2018,05,18,11,36,18.00
2018,05,18,11,37,18.10
2018,05,18,11,38,18.20
2018,05,18,11,39,18.30
2018,05,18,11,40,18.30
2018,05,18,11,41,18.40
2018,05,18,11,42,18.40
2018,05,18,11,43,18.50
2018,05,18,11,44,18.60
2018,05,18,11,45,18.70
2018,05,18,11,46,18.80
2018,05,18,11,47,18.90
2018,05,18,11,48,18.90
2018,05,18,11,49,18.90
2018,05,18,11,50,18.80
2018,05,18,11,51,18.80
2018,05,18,11,52,18.80
2018,05,18,11,53,18.80
2018,05,18,11,54,18.80
2018,05,18,11,55,18.70
2018,05,18,11,56,18.70
2018,05,18,11,57,18.80
2018,05,18,11,58,18.90
2018,05,18,11,59,19.00
2018,05,18,12,00,19.00
2018,05,18,12,01,19.00
2018,05,18,12,02,19.10
2018,05,18,12,03,19.20
2018,05,18,12,04,19.20
2018,05,18,12,05,19.20
2018,05,18,12,06,19.10
2018,05,18,12,07,19.10
2018,05,18,12,08,19.20
2018,05,18,12,09,19.30
2018,05,18,12,10,19.30
2018,05,18,12,11,19.40
2018,05,18,12,12,19.40
2018,05,18,12,13,19.40
2018,05,18,12,14,19.40
2018,05,18,12,15,19.40
2018,05,18,12,16,19.40
2018,05,18,12,17,19.50
2018,05,18,12,18,19.50
2018,05,18,12,19,19.50
2018,05,18,12,20,19.60
2018,05,18,12,21,19.70
2018,05,18,12,22,19.70
2018,05,18,12,23,19.80
2018,05,18,12,24,19.70
2018,05,18,12,25,19.70
2018,05,18,12,26,19.80
2018,05,18,12,27,19.90
2018,05,18,12,28,20.00
2018,05,18,12,29,20.00
2018,05,18,12,30,20.00
2018,05,18,12,31,20.00
2018,05,18,12,32,19.90
2018,05,18,12,33,19.90
2018,05,18,12,34,19.90
2018,05,18,12,35,19.80
2018,05,18,12,36,19.80
2018,05,18,12,37,19.70
2018,05,18,12,38,19.70
2018,05,18,12,39,19.70
2018,05,18,12,40,19.70
2018,05,18,12,41,19.80
2018,05,18,12,42,19.80
2018,05,18,12,43,19.80
2018,05,18,12,44,19.80
2018,05,18,12,45,19.80
2018,05,18,12,46,19.90
2018,05,18,12,47,19.90
2018,05,18,12,48,19.90
2018,05,18,12,49,19.90
2018,05,18,12,50,19.90
2018,05,18,12,51,20.00
2018,05,18,12,52,20.00
2018,05,18,12,53,20.10
2018,05,18,12,54,20.20
2018,05,18,12,55,20.30
2018,05,18,12,56,20.40
2018,05,18,12,57,20.40
2018,05,18,12,58,20.60
2018,05,18,12,59,20.60
2018,05,18,13,00,20.70
2018,05,18,13,01,20.70
2018,05,18,13,02,20.70
2018,05,18,13,03,20.60
2018,05,18,13,04,20.70
2018,05,18,13,05,20.70
2018,05,18,13,06,20.80
2018,05,18,13,07,21.00
2018,05,18,13,08,21.10
2018,05,18,13,09,21.10
2018,05,18,13,10,21.00
2018,05,18,13,11,20.90
2018,05,18,13,12,20.90
2018,05,18,13,13,20.90
2018,05,18,13,14,21.00
2018,05,18,13,15,21.00
2018,05,18,13,16,20.90
2018,05,18,13,17,20.80
2018,05,18,13,18,20.80
2018,05,18,13,19,20.90
2018,05,18,13,20,20.90
2018,05,18,13,21,20.90
2018,05,18,13,22,20.90
2018,05,18,13,23,20.90
2018,05,18,13,24,20.90
2018,05,18,13,25,21.10
2018,05,18,13,26,21.20
2018,05,18,13,27,21.30
2018,05,18,13,28,21.30
2018,05,18,13,29,21.30
2018,05,18,13,30,21.40
2018,05,18,13,31,21.50
2018,05,18,13,32,21.50
2018,05,18,13,33,21.60
2018,05,18,13,34,21.60
2018,05,18,13,35,21.60
2018,05,18,13,36,21.60
2018,05,18,13,37,21.60
2018,05,18,13,38,21.60
2018,05,18,13,39,21.60
2018,05,18,13,40,21.60
2018,05,18,13,41,21.60
2018,05,18,13,42,21.70
2018,05,18,13,43,21.80
2018,05,18,13,44,21.80
2018,05,18,13,45,21.90
2018,05,18,13,46,21.90
2018,05,18,13,47,21.80
2018,05,18,13,48,21.90
2018,05,18,13,49,21.90
2018,05,18,13,50,21.90
2018,05,18,13,51,21.90
2018,05,18,13,52,21.80
2018,05,18,13,53,21.80
2018,05,18,13,54,21.70
2018,05,18,13,55,21.70
2018,05,18,13,56,21.70
2018,05,18,13,57,21.70
2018,05,18,13,58,21.80
2018,05,18,13,59,21.90
2018,05,18,14,00,22.00
2018,05,18,14,01,22.10
2018,05,18,14,02,22.20
2018,05,18,14,03,22.20
2018,05,18,14,04,22.10
2018,05,18,14,05,22.10
2018,05,18,14,06,22.10
2018,05,18,14,07,22.10
2018,05,18,14,08,22.10
2018,05,18,14,09,22.10
2018,05,18,14,10,22.10
2018,05,18,14,11,22.00
2018,05,18,14,12,21.90
2018,05,18,14,13,21.80
2018,05,18,14,14,21.80
2018,05,18,14,15,21.80
2018,05,18,14,16,21.80
2018,05,18,14,17,21.70
2018,05,18,14,18,21.80
2018,05,18,14,19,21.80
2018,05,18,14,20,21.80
2018,05,18,14,21,21.90
2018,05,18,14,22,22.00
2018,05,18,14,23,22.00
2018,05,18,14,24,22.00
2018,05,18,14,25,22.00
2018,05,18,14,26,22.10
2018,05,18,14,27,22.20
2018,05,18,14,28,22.20
2018,05,18,14,29,22.20
2018,05,18,14,30,22.30
2018,05,18,14,31,22.30
2018,05,18,14,32,22.30
2018,05,18,14,33,22.30
2018,05,18,14,34,22.30
2018,05,18,14,35,22.20
2018,05,18,14,36,22.10
2018,05,18,14,37,22.20
2018,05,18,14,38,22.20
2018,05,18,14,39,22.20
2018,05,18,14,40,22.20
2018,05,18,14,41,22.20
2018,05,18,14,42,22.20
2018,05,18,14,43,22.20
2018,05,18,14,44,22.20
2018,05,18,14,45,22.30
2018,05,18,14,46,22.40
2018,05,18,14,47,22.40
2018,05,18,14,48,22.40
2018,05,18,14,49,22.30
2018,05,18,14,50,22.40
2018,05,18,14,51,22.30
2018,05,18,14,52,22.30
2018,05,18,14,53,22.30
2018,05,18,14,54,22.20
2018,05,18,14,55,22.20
2018,05,18,14,56,22.30
2018,05,18,14,57,22.30
2018,05,18,14,58,22.30
2018,05,18,14,59,22.30
2018,05,18,15,00,22.30
2018,05,18,15,01,22.30
2018,05,18,15,02,22.30
2018,05,18,15,03,22.30
2018,05,18,15,04,22.20
2018,05,18,15,05,22.20
2018,05,18,15,06,22.20
2018,05,18,15,07,22.20
2018,05,18,15,08,22.20
2018,05,18,15,09,22.20
2018,05,18,15,10,22.20
2018,05,18,15,11,22.20
2018,05,18,15,12,22.30
2018,05,18,15,13,22.30
2018,05,18,15,14,22.30
2018,05,18,15,15,22.30
2018,05,18,15,16,22.40
2018,05,18,15,17,22.40
2018,05,18,15,18,22.50
2018,05,18,15,19,22.50
2018,05,18,15,20,22.50
2018,05,18,15,21,22.50
2018,05,18,15,22,22.50
2018,05,18,15,23,22.50
2018,05,18,15,24,22.50
2018,05,18,15,25,22.50
2018,05,18,15,26,22.60
2018,05,18,15,27,22.60
2018,05,18,15,28,22.60
2018,05,18,15,29,22.70
2018,05,18,15,30,22.70
2018,05,18,15,31,22.70
2018,05,18,15,32,22.70
2018,05,18,15,33,22.70
2018,05,18,15,34,22.60
2018,05,18,15,35,22.70
2018,05,18,15,36,22.70
2018,05,18,15,37,22.70
2018,05,18,15,38,22.70
2018,05,18,15,39,22.60
2018,05,18,15,40,22.60
2018,05,18,15,41,22.60
2018,05,18,15,42,22.60
2018,05,18,15,43,22.50
2018,05,18,15,44,22.50
2018,05,18,15,45,22.50
2018,05,18,15,46,22.50
2018,05,18,15,47,22.50
2018,05,18,15,48,22.60
2018,05,18,15,49,22.60
2018,05,18,15,50,22.60
2018,05,18,15,51,22.50
2018,05,18,15,52,22.40
2018,05,18,15,53,22.30
2018,05,18,15,54,22.40
2018,05,18,15,55,22.50
2018,05,18,15,56,22.60
2018,05,18,15,57,22.60
2018,05,18,15,58,22.60
2018,05,18,15,59,22.60
2018,05,18,16,00,22.50
2018,05,18,16,01,22.40
2018,05,18,16,02,22.40
2018,05,18,16,03,22.40
2018,05,18,16,04,22.50
2018,05,18,16,05,22.50
2018,05,18,16,06,22.40
2018,05,18,16,07,22.50
2018,05,18,16,08,22.50
2018,05,18,16,09,22.40
2018,05,18,16,10,22.50
2018,05,18,16,11,22.50
2018,05,18,16,12,22.50
2018,05,18,16,13,22.50
2018,05,18,16,14,22.50
2018,05,18,16,15,22.60
2018,05,18,16,16,22.60
2018,05,18,16,17,22.60
2018,05,18,16,18,22.60
2018,05,18,16,19,22.50
2018,05,18,16,20,22.40
2018,05,18,16,21,22.50
2018,05,18,16,22,22.50
2018,05,18,16,23,22.50
2018,05,18,16,24,22.40
2018,05,18,16,25,22.40
2018,05,18,16,26,22.50
2018,05,18,16,27,22.50
2018,05,18,16,28,22.60
2018,05,18,16,29,22.60
2018,05,18,16,30,22.50
2018,05,18,16,31,22.40
2018,05,18,16,32,22.40
2018,05,18,16,33,22.30
2018,05,18,16,34,22.30
2018,05,18,16,35,22.30
2018,05,18,16,36,22.30
2018,05,18,16,37,22.30
2018,05,18,16,38,22.30
2018,05,18,16,39,22.30
2018,05,18,16,40,22.40
2018,05,18,16,41,22.40
2018,05,18,16,42,22.40
2018,05,18,16,43,22.40
2018,05,18,16,44,22.50
2018,05,18,16,45,22.50
2018,05,18,16,46,22.50
2018,05,18,16,47,22.40
2018,05,18,16,48,22.50
2018,05,18,16,49,22.60
2018,05,18,16,50,22.60
2018,05,18,16,51,22.60
2018,05,18,16,52,22.60
2018,05,18,16,53,22.60
2018,05,18,16,54,22.60
2018,05,18,16,55,22.60
2018,05,18,16,56,22.60
2018,05,18,16,57,22.60
2018,05,18,16,58,22.50
2018,05,18,16,59,22.60
2018,05,18,17,00,22.60
2018,05,18,17,01,22.70
2018,05,18,17,02,22.80
2018,05,18,17,03,22.80
2018,05,18,17,04,22.80
2018,05,18,17,05,22.80
2018,05,18,17,06,22.80
2018,05,18,17,07,22.80
2018,05,18,17,08,22.80
2018,05,18,17,09,22.80
2018,05,18,17,10,22.90
2018,05,18,17,11,22.90
2018,05,18,17,12,22.80
2018,05,18,17,13,22.80
2018,05,18,17,14,22.70
2018,05,18,17,15,22.70
2018,05,18,17,16,22.80
2018,05,18,17,17,22.90
2018,05,18,17,18,22.80
2018,05,18,17,19,22.80
2018,05,18,17,20,22.90
2018,05,18,17,21,22.90
2018,05,18,17,22,22.90
2018,05,18,17,23,22.80
2018,05,18,17,24,22.80
2018,05,18,17,25,22.80
2018,05,18,17,26,22.70
2018,05,18,17,27,22.60
2018,05,18,17,28,22.60
2018,05,18,17,29,22.60
2018,05,18,17,30,22.60
2018,05,18,17,31,22.60
2018,05,18,17,32,22.50